GOMX 1

导读

GOMX-1(GOMX 1)是由丹麦(DK)GomSpace公司研制的立方体微纳卫星,于北京时间2013年11月21日08时发射入轨。作为GOMX系列早期试验卫星,它主要用于验证小卫星平台技术与星载载荷性能,为后续GOMX-4、GOMX-5等卫星在北极监测、海事感知等领域的任务积累了技术经验,推动了欧洲微纳卫星技术的发展与应用。

Basic Information
目录编号:
39430
目录名称:
GOMX 1
国际标识:
2013-066Q
轨道中心:
EARTH
卫星名称:
GOMX 1
卫星全名:
--
卫星状态:
在轨 (已飞行4680 天)
发射日期:
2013-11-21 UTC
国别 :
丹麦 (DK)
星等 :
--
This satellite is enrolled in the Space Conjunction Data Service (SCDS) and the current flight risk assessment level is: No High Risk
Orbit Information
数据来源 国际轨道数据
星历时间: 2026-09-14T07:20:48+0800
8小时前
查看轨道信息
半长轴: 7040.191km
偏心率: 0.0128517
轨道倾角: 97.643°
近地点辐角 151.547°
升交点赤经 91.840°
平近点角 209.283°
近地点: 571.575km
远地点: 752.533km
周期: 97.980分钟
每日圈数: 14.696913
Detailed Information
使用方式:
暂无
2D Orbit Map
3D Orbit Map
Orbit Altitude Analysis Chart
Orbit Inclination Analysis Chart
Orbit Comprehensive Analysis Chart
View Comprehensive Chart
Conjunction Data List
Event ID Objects TCA Miss Dist (km) Collision Risk Probability Collision Risk Index (CRI) Action
CDM_260915-113103-452103-943023
GOMX 1 (39430)
2026-09-15T
11:31:42+0000
1.129 km
极远距离
1.801785E-5 中风险 0.6
CDM_260915-013003-045003-943026
GOMX 1 (39430)
2026-09-15T
01:30:57+0000
1.776 km
极远距离
3.957917E-6 低风险 0.47
CDM_260915-095303-452103-943023
GOMX 1 (39430)
2026-09-15T
09:53:33+0000
1.809 km
极远距离
3.79353E-6 低风险 0.47
CDM_260915-231803-943006-707723
GOMX 1 (39430)
2026-09-15T
23:18:09+0000
2.445 km
极远距离
1.838027E-6 低风险 0.4
CDM_260915-130903-452103-943023
GOMX 1 (39430)
2026-09-15T
13:09:51+0000
2.728 km
极远距离
1.534079E-6 低风险 0.39
CDM_260915-115203-943006-707823
GOMX 1 (39430)
2026-09-15T
11:52:29+0000
2.906 km
极远距离
1.401087E-6 低风险 0.38
Miss Distance Evolution Trend with All Objects Subscribe to Flight Safety Assessment
Collision Probability Evolution Trend with All Objects Subscribe to Flight Safety Assessment